ギブス彗星

339P/Gibbs (2009)

English version
Home page
Updated on September 5, 2016

---------------------------------------------------------------------

・ プロフィール

符号 339P/2009 K1
発見日 2009年5月16日
発見光度 18.7等
発見者 A. R. Gibbs (Mt. Lemmon)

・ 写真集

・ 軌道要素

Epoch 2009 June 18.0 TT = JDT 2455000.5
T 2009 June 25.91769 TT                                 MPCW
q   1.3229384            (2000.0)            P               Q
n   0.14008498     Peri.   27.06532     -0.94025305     +0.34024458
a   3.6717660      Node   172.79225     -0.32769420     -0.89432234
e   0.6396997      Incl.    5.74659     -0.09241600     -0.29055323
P   7.04
From 117 observations 2009 Apr. 24-2016 July 3, mean residual 0".5.

・ 光度変化

        m1 = 9.5 + 5 logΔ + 40 log r(t - 40)

---------------------------------------------------------------------

軌道要素はM.P.E.C. 2016-N13に掲載されたものです。
光度グラフはComet for Windowsで作成したものです。

---------------------------------------------------------------------

Copyright(C) Seiichi Yoshida (comet@aerith.net). All rights reserved.